Tracking 20083 objects as of 9-Dec-2019
HD Live streaming from Space Station
objects crossing your sky now

COSMOS 2251 DEB

Track COSMOS 2251 DEB now!
10-day predictions


NORAD ID: 36541
Int'l Code: 1993-036BDB
Perigee: 665.9 km
Apogee: 713.0 km
Inclination: 74.0 °
Period: 98.4 minutes
Semi major axis: 7060 km
RCS: 0.0027 m2 (small)
Launch date: June 16, 1993
Source: Commonwealth of Independent States (former USSR) (CIS)
Launch site: PLESETSK MISSILE AND SPACE COMPLEX (PKMTR)

Note: This is SATELLITE DEBRIS
aabbcc
Your satellite tracking list
Your tracking list is empty




NASA's NSSDC Master Catalog

Two Line Element Set (TLE):
1 36541U 93036BDB 19340.14097500 +.00002630 +00000-0 +51066-3 0  9995
2 36541 074.0062 242.1963 0033291 119.0769 241.3740 14.63371303329712
Source of the keplerian elements: AFSPC